Wind_Speed
15 14 9 6 7 7 9 19 24 23 25 26 21 16 14 11 6 7 8 6 7 9 12 14 10 7 8 10 13 18 19 15 14 19 21 21 18 15 14 17 18 20 22 22 23 29 32 32 32 31 31 32 34 34 34 35 35 35 36 39 41 41 42 42 42 43 43 44 44 46 46 46 46 45 45 43 42 41 40 39 38 37 37 38 38 39 40
16 16 14 9 7 11 11 13 23 24 23 25 23 18 17 15 9 8 9 5 6 10 11 13 12 10 14 17 19 20 18 14 13 16 17 17 19 19 16 15 16 17 17 16 18 26 29 28 29 30 30 31 32 33 32 33 35 34 35 38 41 42 43 44 43 42 42 42 43 44 45 46 46 46 45 44 43 42 41 40 39 38 37 36 37 38 39
13 16 17 13 10 10 12 14 17 23 22 24 24 19 18 15 10 12 13 8 6 9 9 9 12 15 18 17 16 17 15 14 13 11 9 9 14 22 22 17 17 18 17 17 18 23 26 27 28 29 29 29 29 30 31 31 33 34 34 36 40 42 43 43 43 42 42 42 42 43 45 45 46 46 46 45 45 43 42 42 41 40 38 37 37 37 38
9 12 17 16 8 7 12 16 15 16 17 19 20 17 16 15 13 14 13 11 8 8 10 11 13 14 13 11 12 12 9 9 8 6 6 10 7 13 16 16 17 18 19 20 21 23 25 26 27 27 28 28 28 29 30 30 30 32 34 35 38 42 42 41 42 43 43 43 43 43 44 45 45 46 45 46 46 45 44 43 42 42 41 40 39 38 38
9 11 15 15 6 4 11 12 10 7 10 15 19 20 18 16 15 12 9 10 8 9 10 9 9 10 9 8 8 8 8 8 7 5 5 6 3 4 7 10 15 17 18 21 22 22 22 22 23 24 25 26 27 27 28 29 30 31 33 34 35 39 42 42 42 43 44 44 44 44 44 44 44 45 46 47 47 47 46 44 44 43 44 43 42 41 41
9 12 13 13 10 8 8 7 7 9 11 10 11 16 20 19 16 12 9 11 8 10 10 7 5 5 6 9 10 10 10 9 7 4 3 2 2 2 3 4 7 8 12 18 17 14 15 16 18 21 22 23 25 26 26 28 30 31 33 34 34 36 41 43 43 43 43 44 44 45 44 44 44 45 46 47 47 47 46 44 45 46 45 45 45 44 44
7 9 10 12 11 9 5 4 10 13 8 6 10 12 21 23 17 11 11 13 10 7 6 5 4 4 6 10 10 9 8 8 6 3 1 1 1 4 5 6 6 9 8 10 8 5 8 9 10 14 18 20 22 23 25 27 30 32 33 35 35 35 38 42 44 43 43 43 44 44 44 44 44 45 46 46 46 46 45 45 46 47 47 47 47 46 46
5 7 11 10 7 8 9 9 14 14 6 5 11 8 8 12 9 8 8 10 10 7 4 5 6 6 7 9 7 5 4 2 1 4 3 4 5 2 5 10 10 7 5 4 1 1 5 7 7 8 12 16 19 21 23 25 28 31 33 35 37 37 37 39 43 43 43 43 43 43 43 44 45 45 45 45 45 45 44 44 44 46 47 47 47 47 46
5 5 9 8 5 8 11 11 13 11 6 5 8 3 1 1 4 9 6 6 7 8 8 7 8 7 5 5 5 1 1 3 5 5 5 13 16 15 14 14 10 5 2 1 3 4 3 6 8 7 9 12 15 19 22 24 26 30 33 36 38 38 37 37 40 43 43 42 42 42 43 44 45 45 44 43 43 43 43 42 42 44 46 47 47 47 47
5 5 6 9 9 9 8 9 12 8 4 4 6 1 3 3 3 3 6 6 4 3 8 9 10 8 4 2 3 5 6 9 13 13 14 16 16 14 14 13 10 4 2 3 5 5 5 5 6 8 10 12 13 15 20 24 26 28 32 36 37 38 38 36 38 41 42 42 42 42 42 42 43 43 42 42 41 41 41 41 41 41 40 41 44 46 47
7 6 5 7 9 6 3 11 14 8 4 3 5 4 4 8 14 11 6 5 8 4 2 5 6 4 5 3 5 11 13 12 13 14 15 14 12 11 11 10 6 3 5 5 5 5 5 5 5 5 8 12 14 15 16 20 24 27 31 34 35 36 37 35 35 38 39 40 41 41 41 41 41 41 41 40 40 40 40 41 41 38 36 35 38 41 43
7 7 6 4 5 2 12 11 10 12 12 9 8 6 2 10 17 20 16 4 9 6 6 6 3 3 3 3 8 13 14 12 13 13 12 12 12 10 10 9 7 7 8 6 5 4 5 7 6 4 5 9 13 16 16 17 22 25 28 30 31 32 34 34 33 34 37 38 39 39 39 39 39 39 37 37 37 37 38 39 39 38 36 35 35 36 37
7 7 7 5 4 6 17 15 8 3 9 14 9 4 2 11 14 19 19 12 12 13 10 6 4 4 8 11 11 13 14 12 13 12 10 11 10 9 10 11 9 7 6 6 4 5 6 7 4 5 6 7 10 15 16 17 20 21 22 25 28 29 31 32 31 31 34 36 37 36 36 35 36 35 34 35 35 34 35 35 35 35 35 35 34 33 33
7 5 7 6 4 7 17 16 21 22 5 8 3 3 6 9 14 19 19 17 18 16 11 8 9 11 14 15 13 14 15 13 12 12 11 11 10 9 10 9 8 7 6 6 6 6 7 6 3 3 5 6 9 12 14 15 17 18 16 18 23 27 28 30 30 29 30 33 34 34 33 32 32 32 32 31 31 31 31 31 30 31 32 32 33 32 32
7 7 7 5 2 8 18 16 15 17 8 2 2 8 9 10 14 16 18 19 19 16 12 11 12 12 13 15 15 16 14 13 13 12 11 12 11 10 10 8 7 8 7 6 7 6 6 8 8 6 3 4 7 8 8 10 13 15 14 14 18 24 26 27 28 27 26 28 30 30 31 30 30 30 30 29 28 28 29 29 28 28 29 30 31 31 31
5 7 3 1 2 6 14 15 9 9 9 6 6 8 9 11 13 14 15 16 17 16 13 11 10 11 13 14 15 16 15 13 14 13 12 12 12 11 10 9 9 9 7 5 7 6 6 10 10 5 4 2 3 4 7 9 11 14 15 12 14 20 23 24 26 26 24 24 26 27 28 28 28 28 28 28 27 27 28 28 28 28 28 28 29 30 30
4 5 4 4 6 6 12 17 12 9 9 8 9 10 9 11 13 14 14 14 15 16 16 13 11 10 12 13 14 15 15 15 14 13 13 12 11 10 10 9 8 7 6 5 6 6 6 10 9 1 6 5 5 8 10 11 13 14 14 12 11 17 21 21 23 25 23 22 22 23 24 24 25 26 26 26 26 27 27 27 27 27 27 26 27 28 29
7 7 6 7 8 6 8 11 12 10 8 9 10 10 9 10 12 12 13 14 14 14 14 14 13 12 12 12 12 14 14 14 14 14 13 12 11 10 10 10 8 7 6 5 6 6 5 7 8 1 6 6 6 9 9 10 13 15 14 12 10 14 17 18 19 21 21 20 20 21 21 21 22 24 24 24 25 25 25 25 26 26 25 25 25 25 26
6 5 3 2 8 9 6 7 10 11 10 9 10 9 8 10 11 11 12 13 12 12 12 13 15 15 13 12 12 13 13 13 13 13 12 11 11 10 9 9 8 7 6 5 6 6 4 2 4 3 2 2 2 4 5 7 11 15 15 12 10 12 14 15 16 18 19 19 18 19 20 20 20 21 21 21 22 23 23 23 23 23 23 24 24 24 24
7 8 8 9 15 18 15 11 11 13 14 11 9 9 9 10 10 11 11 11 11 12 12 12 14 15 15 14 13 12 12 12 11 12 11 10 10 10 8 7 6 5 5 5 3 5 5 2 2 3 1 2 2 1 1 2 5 10 12 11 9 10 11 11 12 15 17 17 17 18 19 18 18 18 18 18 19 19 19 20 20 21 21 21 22 22 22
8 10 12 12 13 15 15 12 12 13 14 11 9 9 10 12 13 14 14 13 12 12 12 12 13 14 16 16 15 13 12 11 10 10 10 9 9 9 6 5 5 4 3 3 3 3 3 3 4 4 3 3 4 3 2 3 4 5 8 10 9 9 9 10 11 12 14 16 17 17 17 16 15 16 17 16 16 17 17 18 19 20 20 19 19 20 20
7 8 9 10 9 9 11 12 12 10 11 12 13 14 13 13 15 16 17 17 16 14 13 13 13 13 14 17 18 16 14 11 10 10 9 8 8 7 5 4 4 3 2 1 2 2 2 4 5 5 6 5 4 3 4 5 5 5 6 9 10 10 9 10 11 12 12 14 15 16 15 14 14 15 16 15 15 16 17 18 19 21 22 21 20 19 19
9 11 14 14 11 10 13 16 15 13 13 14 16 18 17 15 15 16 18 20 20 20 19 17 15 14 15 17 19 20 17 13 11 9 7 6 6 6 5 4 3 2 2 1 1 0 2 3 3 4 5 5 4 4 5 6 6 6 8 9 11 12 12 11 13 14 12 12 16 17 15 14 15 16 16 16 15 15 14 13 14 18 21 22 22 22 21
14 19 22 21 18 16 17 19 18 16 14 14 16 18 20 20 18 17 18 20 21 22 23 22 19 17 16 17 18 20 20 16 12 9 7 5 5 5 4 1 2 3 3 3 3 3 3 4 6 5 4 5 5 4 4 6 7 9 10 9 9 11 12 12 14 15 12 12 16 18 16 13 13 14 14 14 14 14 14 12 12 14 17 20 22 24 25
19 22 24 24 23 22 20 20 20 18 15 14 15 18 20 22 22 21 21 22 22 22 22 24 24 21 19 19 18 18 19 18 14 11 8 7 8 7 3 0 2 3 4 4 5 6 6 7 7 6 5 5 5 3 3 5 7 9 12 12 10 9 9 11 13 13 11 12 15 16 15 14 12 11 11 11 9 9 10 10 10 11 13 15 17 19 21
26 25 24 24 26 25 23 21 22 21 17 16 17 19 21 22 22 21 20 20 21 21 21 23 26 26 24 22 20 18 19 19 15 11 9 9 9 9 7 4 3 4 5 6 6 7 7 7 8 8 8 8 7 5 5 6 5 7 11 14 14 12 10 11 13 12 10 11 13 13 14 13 12 13 14 12 9 8 7 4 2 3 5 7 8 9 10
30 28 25 22 23 25 24 23 23 23 21 19 19 20 20 19 18 18 19 19 21 22 23 23 25 26 25 24 22 20 19 18 14 11 11 10 10 10 8 6 5 6 6 6 6 5 4 5 5 5 7 9 10 8 7 9 9 8 8 9 10 11 10 10 11 11 11 12 12 12 12 12 10 9 10 9 7 7 7 6 3 1 1 4 6 6 5
34 32 28 24 25 26 26 24 25 25 24 23 22 22 21 20 18 19 20 21 20 21 21 21 21 22 23 23 23 22 21 17 12 10 10 10 9 8 7 7 7 8 8 9 10 9 7 5 4 3 3 7 9 10 9 9 10 12 13 11 10 10 10 9 8 9 10 10 10 12 13 13 11 9 9 8 7 6 5 4 4 3 0 4 6 6 5
36 34 31 31 32 32 30 28 28 27 25 25 25 24 23 22 21 21 21 20 19 19 19 19 19 19 19 19 20 22 23 19 12 10 9 9 8 8 9 9 9 9 10 10 11 11 9 8 8 8 6 3 7 9 9 7 7 9 11 11 10 10 11 10 8 8 10 10 10 11 11 10 9 9 8 8 7 7 5 2 1 1 1 4 5 4 4
36 33 31 32 33 33 31 31 31 31 29 28 27 26 26 25 23 23 22 20 19 18 18 18 18 17 16 17 18 21 21 17 12 11 12 12 11 10 12 11 10 11 12 12 11 10 9 9 9 10 10 6 5 7 8 7 6 7 8 8 9 11 12 12 11 10 11 11 10 9 9 8 7 7 7 7 7 7 5 3 3 3 3 6 5 3 4
37 33 32 31 31 32 33 32 31 30 31 30 29 29 28 27 25 25 24 21 19 19 18 18 17 15 14 16 18 18 15 13 12 11 11 13 13 13 14 13 12 13 14 14 12 10 8 8 9 10 10 9 8 8 10 10 9 9 10 11 11 11 13 13 12 11 11 11 11 10 9 8 7 6 6 6 6 6 5 4 4 4 6 9 8 5 6
33 31 31 32 32 31 32 32 31 30 30 29 29 30 29 28 26 26 24 22 20 19 19 19 17 14 12 12 13 12 10 13 14 12 11 12 14 14 14 14 15 15 14 14 13 12 11 9 8 10 12 13 11 9 9 10 10 10 9 9 9 10 13 15 13 11 11 11 11 10 9 8 6 5 4 5 5 5 4 3 3 3 4 7 8 9 10
27 27 26 29 31 32 32 32 32 31 30 29 30 30 29 27 27 26 24 22 20 19 19 18 17 15 12 9 6 6 8 12 14 16 16 16 16 15 14 16 16 15 14 13 13 13 13 11 9 8 11 12 12 10 9 9 10 11 10 9 8 9 11 13 13 12 11 10 10 9 8 7 6 6 5 5 5 4 2 1 2 3 5 7 9 12 12
16 25 27 27 27 29 32 33 32 31 31 31 31 30 29 28 28 26 24 22 20 19 17 16 16 15 13 9 5 4 5 7 12 17 19 20 20 19 18 18 19 17 15 15 14 15 15 13 11 10 10 10 10 11 12 10 10 10 10 9 9 9 7 8 9 9 9 8 9 9 8 7 7 6 5 5 6 6 5 3 1 1 4 7 9 10 10
12 10 21 26 25 25 26 27 28 28 29 30 30 30 30 29 28 26 23 22 21 19 18 16 15 13 10 9 10 10 9 9 12 16 20 22 24 24 23 22 21 19 17 15 15 16 16 15 13 11 11 10 10 13 13 12 11 11 11 11 12 12 11 10 11 11 10 10 9 9 8 8 7 6 5 6 7 8 7 6 5 3 3 5 6 6 6
32 21 8 10 19 25 26 26 25 26 27 28 28 28 29 29 28 25 23 21 21 20 18 17 15 11 9 14 16 16 16 16 17 20 21 23 25 26 25 24 23 21 19 17 16 16 16 16 14 14 14 14 13 14 14 13 13 14 15 16 15 14 13 13 12 12 12 11 10 9 9 7 5 4 4 4 5 5 5 5 6 6 5 5 5 5 5
44 38 29 18 6 7 16 21 24 26 28 28 27 26 26 25 24 22 21 21 20 20 17 15 12 11 15 21 22 22 21 21 22 23 23 24 25 26 25 23 21 20 20 19 18 18 18 17 16 15 16 17 16 16 16 15 13 13 15 16 15 14 12 11 11 11 10 9 10 10 9 8 6 5 5 5 4 3 3 3 4 5 5 4 4 4 5
52 48 42 36 29 20 7 6 14 17 20 23 23 21 21 22 22 21 21 21 20 18 16 16 17 17 19 23 24 24 23 23 23 23 22 22 22 24 23 22 20 20 20 19 20 21 20 18 17 17 17 18 18 18 17 16 14 14 15 17 17 15 14 13 14 14 14 13 13 13 13 13 12 10 8 6 4 2 1 0 1 2 3 3 3 3 4
54 53 50 48 45 39 29 18 10 6 8 15 19 19 19 20 21 19 19 20 21 21 21 22 21 20 22 24 25 25 24 23 23 23 23 23 24 24 23 23 21 20 20 21 22 23 21 19 19 20 19 18 19 19 19 19 18 17 17 17 17 17 16 15 15 16 16 16 17 17 17 17 17 15 12 10 7 6 5 4 3 2 3 3 3 3 4
52 52 52 53 52 50 45 40 35 30 23 18 16 17 19 21 20 18 18 20 24 26 26 26 26 26 26 26 26 26 24 23 24 25 25 26 27 27 28 27 25 23 23 23 24 25 24 23 23 23 21 20 20 20 19 19 20 20 19 19 18 18 17 16 16 16 17 17 18 19 19 19 19 19 19 17 16 14 13 11 10 9 8 7 6 5 4
49 49 51 53 53 51 51 50 46 43 42 43 41 34 30 30 31 30 28 30 33 33 31 32 33 32 29 29 29 28 27 28 28 27 26 25 26 28 30 29 26 25 24 23 23 24 25 26 26 25 22 21 22 22 21 20 20 21 21 21 20 20 20 19 18 18 18 18 19 19 19 19 20 21 21 21 21 20 19 17 17 16 15 14 12 10 8
44 46 48 50 51 50 51 50 48 45 47 51 52 50 48 47 45 43 42 42 43 41 38 36 36 36 34 34 34 34 33 33 32 31 30 29 27 27 28 27 25 23 23 22 22 23 23 24 25 24 21 21 22 22 22 22 22 21 22 23 22 22 22 21 21 20 20 20 20 20 20 20 21 22 22 22 22 23 22 21 20 19 18 17 15 14 13
40 42 43 44 46 47 48 47 46 46 48 49 49 51 53 51 50 48 47 47 48 47 43 40 39 38 38 37 37 36 34 33 32 32 32 31 29 28 27 25 23 22 22 21 21 22 22 22 22 20 18 18 19 20 22 23 23 22 22 22 23 23 23 22 22 22 21 21 22 22 22 22 22 22 23 23 23 23 23 23 22 21 19 18 16 15 15
37 39 39 39 40 42 44 44 45 47 48 46 46 48 50 49 49 48 47 47 48 48 44 40 39 39 38 38 38 36 33 32 32 32 32 31 30 29 26 23 21 21 21 21 22 22 22 22 22 19 17 16 16 17 20 22 23 23 22 22 22 23 23 23 23 23 22 22 21 21 21 21 21 22 22 23 24 24 23 23 23 21 20 18 17 16 16
35 36 37 37 37 38 39 40 42 44 44 43 45 46 46 44 44 44 43 44 45 44 40 38 37 37 37 37 36 35 33 32 31 30 30 30 29 27 24 22 20 20 19 20 21 22 22 21 20 19 19 18 16 15 17 19 21 22 23 23 23 22 22 22 22 22 21 21 21 20 20 20 20 20 21 21 21 22 22 23 23 23 21 20 19 18 17
33 33 33 34 34 35 34 34 36 38 39 41 43 43 41 40 40 39 39 39 39 38 36 34 33 32 32 32 32 32 32 31 30 28 28 27 25 23 22 22 21 19 18 19 20 21 20 19 18 18 19 18 17 16 17 18 19 20 22 22 23 22 21 21 21 21 21 20 20 20 19 19 19 19 19 19 19 19 19 20 20 20 21 21 21 21 20
30 31 31 30 30 30 30 31 33 34 35 37 37 37 36 36 36 36 35 35 35 34 33 31 30 29 28 28 28 28 28 28 27 26 24 22 21 20 20 20 20 19 18 18 19 19 18 18 18 18 18 18 18 18 18 18 19 20 21 21 21 22 21 20 20 20 19 20 19 18 18 19 19 19 18 18 18 17 17 17 17 17 18 20 20 20 20
24 26 27 27 27 27 28 29 30 31 31 31 31 30 30 31 31 32 32 32 31 31 30 28 27 26 25 24 25 24 24 24 24 22 20 19 18 18 17 18 18 18 17 17 18 19 19 19 19 19 19 19 19 20 19 18 18 18 19 20 20 20 19 19 19 18 18 18 18 18 18 18 18 18 18 18 18 17 16 16 16 15 15 17 19 19 20
19 21 23 25 25 25 26 27 28 28 27 26 26 25 26 26 27 27 27 27 27 27 26 25 24 23 22 21 22 22 21 21 22 20 18 18 18 17 16 16 17 16 15 15 16 18 19 20 19 19 19 19 19 19 19 19 18 17 16 17 19 19 19 17 17 17 17 17 16 16 17 16 15 14 15 17 18 18 19 19 18 17 16 16 17 18 19
18 18 19 21 22 23 23 23 24 23 22 22 22 22 23 23 24 23 22 22 22 22 22 21 21 20 19 18 18 19 18 18 18 17 16 16 16 15 15 15 15 15 15 15 15 15 17 19 19 18 18 18 18 17 17 18 18 17 16 15 16 18 18 17 16 16 16 16 15 15 15 15 14 13 13 13 12 13 14 16 17 17 16 14 14 15 16
18 17 16 17 18 19 19 20 21 20 20 19 19 18 19 21 22 21 20 19 18 18 18 19 19 18 18 17 17 17 17 17 16 15 15 15 15 14 14 14 14 14 14 15 16 15 15 16 17 17 17 16 17 17 16 16 17 17 16 15 13 14 15 16 16 15 15 15 14 14 14 14 14 14 14 12 10 10 11 12 12 12 11 11 12 14 14
17 17 16 15 16 16 16 17 17 17 17 17 17 16 16 17 18 18 19 18 17 16 16 16 16 16 16 16 15 15 15 15 16 15 14 14 14 14 14 14 14 14 15 15 15 15 15 15 16 17 16 16 16 16 16 16 16 15 16 16 15 14 14 15 16 15 15 15 15 14 14 14 14 14 14 14 13 13 13 13 12 12 12 13 13 14 14
Wind_Direction
248 241 253 304 317 301 238 218 211 198 198 206 211 209 192 185 200 183 163 156 156 150 139 137 146 153 135 129 119 100 87 86 113 128 123 118 122 127 134 148 164 181 188 191 197 199 198 198 200 204 207 207 206 207 206 206 206 206 206 206 206 207 210 214 217 218 220 223 225 226 226 227 228 226 225 225 223 223 224 228 231 231 228 229 233 236 237
251 250 254 256 275 307 306 249 216 200 198 203 207 214 200 189 205 190 159 142 142 141 142 151 151 120 100 102 95 82 73 73 100 131 133 132 143 142 140 158 175 185 191 189 192 195 193 196 201 206 208 208 207 207 206 207 207 207 208 208 208 208 211 215 217 217 219 221 223 225 225 226 228 227 226 225 223 223 223 225 229 231 228 226 229 234 236
257 256 249 239 243 273 298 285 233 203 198 200 202 212 207 190 198 197 171 158 159 142 122 113 100 80 82 96 89 77 83 89 98 119 113 105 142 146 142 156 174 179 182 181 186 194 197 200 203 206 208 208 207 207 207 208 208 208 210 211 211 211 212 214 216 217 220 221 222 224 225 225 227 228 228 226 225 224 223 223 226 230 229 226 227 230 233
257 257 239 224 227 267 281 282 252 213 204 204 197 204 212 196 190 194 179 169 165 128 110 108 95 80 78 85 80 75 85 89 88 103 73 54 91 136 134 141 154 162 173 182 190 199 201 203 205 206 208 207 207 208 208 208 208 208 210 213 214 214 213 214 215 217 220 221 222 224 225 225 226 228 229 228 226 225 224 223 223 226 229 229 228 227 230
250 256 244 226 209 256 265 260 242 231 248 229 199 194 209 207 195 194 186 177 159 107 109 128 110 100 105 102 94 86 81 82 81 79 73 76 134 151 114 129 146 157 174 181 185 193 196 199 203 204 206 208 209 210 209 209 208 208 209 212 215 216 214 214 216 217 218 220 222 224 226 227 226 226 227 228 227 226 225 224 223 224 227 229 230 229 229
253 254 255 236 209 213 242 241 227 247 268 255 215 199 201 203 205 199 180 178 160 92 94 125 109 104 117 105 99 95 90 96 102 102 97 106 146 119 97 152 146 137 163 168 167 176 185 192 201 203 205 209 211 212 212 210 210 210 210 211 215 218 216 214 216 218 218 219 222 223 226 228 227 226 226 228 228 226 225 224 223 224 227 229 231 232 232
255 245 242 231 218 215 230 258 249 250 264 309 302 249 202 193 198 187 164 172 169 114 107 142 134 116 109 104 105 100 93 93 85 78 64 10 271 217 200 180 123 90 113 135 131 147 175 191 205 204 205 208 210 213 214 213 212 212 212 213 214 218 219 215 215 217 218 219 221 223 224 226 227 227 227 227 227 225 224 224 224 225 227 228 230 232 233
248 223 218 220 228 221 216 234 241 237 233 275 288 275 190 172 159 128 137 169 158 121 103 117 112 109 105 102 96 70 68 85 323 280 285 8 359 355 112 122 121 106 98 97 59 229 202 209 219 217 215 211 210 212 214 214 214 213 213 215 214 217 220 217 215 216 217 218 220 222 223 224 226 227 227 226 227 226 224 224 225 226 227 228 230 232 232
250 235 223 218 230 219 213 230 238 223 207 257 276 296 81 180 141 126 145 187 171 168 186 160 116 105 105 106 107 95 288 319 339 339 35 47 42 41 54 78 92 97 104 99 288 279 262 237 229 232 232 221 218 217 214 213 215 215 216 217 216 216 220 219 216 216 218 219 220 221 223 224 226 226 226 226 226 226 225 223 225 227 228 230 231 233 234
277 272 236 217 216 207 207 239 249 234 203 276 297 206 180 288 329 159 193 188 130 160 187 151 106 95 113 137 104 62 33 28 29 31 37 42 43 40 41 57 76 101 204 275 294 306 321 287 252 242 236 228 224 221 217 215 216 217 219 220 218 217 219 220 219 218 219 220 220 222 223 224 226 226 227 228 228 227 227 226 226 228 230 231 232 234 235
280 275 259 232 210 194 246 243 228 201 160 273 291 183 161 352 357 349 298 179 123 80 74 94 86 113 155 152 59 33 26 30 31 27 25 26 30 32 34 45 48 357 340 342 339 351 345 296 262 255 245 233 225 219 217 218 218 219 222 222 220 219 218 221 222 220 219 220 221 223 223 224 227 230 231 232 231 230 230 231 230 229 229 231 233 233 235
274 261 258 248 178 50 340 297 218 181 176 210 239 193 155 350 359 3 356 38 119 84 49 66 92 152 138 46 19 11 8 16 21 17 13 11 13 17 17 10 356 356 13 18 12 3 315 270 251 254 248 235 228 222 217 217 219 223 225 224 222 221 219 220 223 221 220 220 221 223 223 224 228 231 232 232 231 232 233 234 233 231 230 231 233 233 234
263 255 254 243 132 25 338 335 360 10 197 200 210 198 273 331 356 11 10 29 56 44 42 59 56 31 10 -0 1 4 3 7 10 8 4 0 1 1 356 354 356 11 26 18 6 349 321 303 303 301 278 257 243 228 219 218 219 222 228 227 223 221 219 218 221 222 221 220 222 223 224 226 228 230 231 231 231 232 232 233 234 233 230 230 231 233 235
259 254 256 240 126 16 341 354 19 13 355 192 191 330 309 339 11 13 13 34 42 32 32 33 17 7 357 352 358 4 3 2 3 2 2 1 1 360 357 359 5 12 10 355 344 342 334 321 302 294 301 292 268 239 222 222 221 218 225 231 227 222 218 216 217 221 221 219 220 224 224 225 227 228 229 230 229 229 228 228 230 232 230 229 230 232 235
256 248 254 247 156 356 351 8 30 24 26 142 38 0 343 5 26 16 14 33 34 23 26 24 7 358 354 354 358 359 358 359 359 -0 2 -0 357 358 360 359 355 355 357 353 352 354 337 310 283 255 246 278 272 248 228 228 222 212 216 229 228 220 217 214 213 217 221 220 219 222 223 224 226 227 227 227 226 226 226 224 226 229 231 231 231 232 235
241 235 248 3 242 309 2 26 41 42 44 43 41 32 1 1 22 22 17 24 21 14 16 11 359 357 356 353 351 351 352 355 355 357 359 355 350 348 349 345 344 348 353 354 358 359 340 328 315 269 208 218 238 216 212 214 207 202 204 218 226 219 214 214 212 212 218 221 219 220 221 222 225 226 226 225 224 224 225 224 225 227 230 232 234 235 237
278 277 292 318 285 304 23 34 25 27 32 15 23 41 20 1 15 21 15 13 10 7 4 358 354 356 351 347 345 345 346 347 347 349 350 349 347 346 346 344 346 356 357 347 354 1 355 352 348 247 154 141 179 198 198 196 193 194 195 201 217 215 210 212 212 211 214 219 220 219 220 220 222 222 222 223 223 223 225 225 225 227 229 231 234 238 241
305 300 264 255 283 323 35 31 3 357 2 357 11 32 26 7 4 7 9 10 7 3 359 355 352 347 343 342 340 339 338 336 339 341 340 342 345 343 341 338 335 342 345 337 347 354 358 10 10 20 157 154 188 208 207 199 193 190 185 185 197 203 201 204 208 208 210 215 218 218 218 219 221 222 221 221 221 221 223 225 227 228 229 231 235 238 242
299 296 240 256 317 329 354 8 349 334 327 343 6 16 14 2 349 347 357 2 1 -0 359 355 349 344 343 341 336 334 332 329 334 338 333 334 339 337 337 337 334 339 340 328 340 351 347 31 43 33 168 166 205 220 219 212 202 196 187 175 173 183 187 195 204 204 205 209 212 213 214 215 218 221 221 220 219 220 221 223 226 229 230 231 234 236 240
267 263 267 297 314 313 313 325 329 314 310 328 354 358 351 343 333 335 344 347 350 354 354 350 344 339 340 340 335 330 326 323 329 333 328 327 332 330 330 334 335 342 345 337 348 354 338 342 39 30 18 37 41 61 171 178 192 201 195 179 172 179 181 188 200 202 201 203 206 209 210 211 213 216 217 217 217 221 222 221 223 228 231 234 237 238 240
279 263 267 280 292 295 293 288 283 290 307 324 333 337 338 330 324 329 333 334 339 345 346 345 341 336 335 335 331 325 323 320 320 320 317 318 322 319 315 327 333 328 333 345 351 346 355 35 51 37 37 61 62 52 61 104 135 179 189 178 175 176 176 186 197 197 195 198 201 203 206 207 207 209 213 215 215 218 222 221 221 226 229 231 233 233 234
270 260 267 279 286 285 281 277 279 297 323 325 316 318 325 326 325 327 328 328 330 332 333 335 335 333 331 329 327 324 321 317 317 316 310 311 322 320 302 306 323 308 274 298 334 349 38 56 51 46 54 69 76 72 85 108 125 147 162 163 165 168 174 185 188 188 193 197 195 196 201 206 204 205 210 212 209 212 218 219 219 223 227 230 232 232 231
275 276 281 290 296 290 285 287 289 302 320 320 312 311 315 318 322 325 326 326 325 324 324 326 329 331 330 327 326 324 319 314 314 313 304 304 329 336 315 289 286 260 221 210 193 73 35 40 57 71 72 69 63 63 83 104 119 135 144 148 158 169 179 179 171 175 187 188 182 186 194 196 193 195 202 206 208 214 223 225 224 225 227 231 237 240 242
277 279 284 291 293 288 290 295 293 291 300 307 304 304 306 309 313 316 317 316 316 316 317 318 320 324 327 325 322 319 315 310 306 305 298 290 301 318 324 298 211 186 167 152 150 138 106 96 96 94 98 102 97 91 108 132 143 147 146 147 152 161 173 177 172 175 178 167 168 182 195 194 182 177 183 195 207 219 231 240 244 241 237 236 239 243 246
284 277 277 282 284 283 287 293 291 285 286 290 291 292 295 299 305 310 310 308 307 309 312 313 313 314 318 320 316 312 309 304 295 288 284 272 267 274 289 69 134 147 141 130 126 119 114 112 105 93 88 97 98 94 121 152 165 157 145 141 139 138 154 169 172 175 176 164 165 181 195 198 190 179 173 173 184 206 228 244 253 252 248 245 245 247 250
300 291 282 279 277 277 277 277 276 273 272 275 278 278 279 285 292 298 302 302 301 302 304 305 304 305 309 314 311 304 303 300 288 274 270 267 258 251 244 222 156 126 119 120 120 116 118 127 124 113 105 95 80 74 98 116 137 151 145 142 140 134 137 154 161 163 165 165 171 184 192 191 192 195 191 182 170 172 182 188 212 242 249 247 245 249 257
294 289 284 278 271 267 266 264 264 265 266 267 269 268 268 272 278 284 289 291 292 294 295 296 297 298 303 307 303 296 294 293 279 260 256 253 243 232 223 207 175 141 120 113 116 114 114 131 137 134 131 117 99 91 107 112 108 115 125 131 133 130 127 139 156 162 162 164 170 174 171 162 157 167 177 174 162 156 153 144 136 139 273 263 253 254 267
284 279 274 268 263 261 261 260 261 261 260 258 258 259 260 262 266 272 276 277 280 285 287 287 289 292 295 299 298 293 289 283 265 246 244 239 225 210 194 175 162 150 129 113 109 101 87 94 112 114 146 144 122 106 109 121 126 126 122 113 108 106 104 109 133 150 153 154 155 151 146 140 133 131 137 140 134 124 120 129 141 134 152 271 265 266 273
276 271 265 259 258 259 260 259 258 258 258 255 254 254 256 257 261 264 265 267 272 277 278 281 284 286 288 293 295 292 288 278 252 217 208 206 194 174 159 145 134 129 121 110 108 102 89 88 91 74 62 121 145 120 105 113 133 134 128 124 122 117 110 105 107 116 120 123 128 133 134 135 134 132 133 133 122 105 95 99 175 149 267 281 287 303 303
270 266 260 255 253 252 252 251 251 252 252 252 251 252 252 253 256 258 257 258 264 268 271 277 281 281 282 287 288 287 283 269 234 192 178 180 176 159 147 139 126 116 109 104 105 106 94 86 87 78 68 79 122 114 96 89 88 88 95 109 122 125 119 108 96 95 100 102 102 103 103 102 101 101 101 100 95 92 85 43 8 16 334 309 312 331 344
269 263 257 253 249 246 245 245 245 246 246 246 245 247 247 248 251 253 253 254 259 263 266 270 273 274 279 284 285 282 270 242 213 184 160 157 157 148 140 135 123 112 108 107 109 110 101 88 82 81 82 90 109 114 106 98 91 82 78 84 94 108 111 103 93 89 92 94 92 90 87 83 78 76 80 79 74 77 76 53 37 23 339 325 326 346 13
263 257 253 248 244 242 240 240 241 242 241 240 240 242 242 243 246 249 250 252 256 259 261 263 263 264 272 280 278 265 234 206 198 190 172 154 144 135 130 126 120 112 109 109 109 108 103 91 75 70 75 79 85 90 94 93 91 87 81 79 86 102 107 103 99 98 98 97 96 93 86 83 80 72 69 67 61 60 66 72 69 41 356 340 336 344 1
251 243 242 240 237 236 235 235 235 236 236 235 236 237 238 240 243 244 246 249 252 253 254 257 255 250 251 261 267 239 205 184 172 168 166 155 140 129 123 120 117 113 108 105 106 105 96 80 64 65 71 71 70 73 73 73 77 80 78 73 79 100 112 111 110 111 107 99 97 96 93 94 97 86 69 61 56 45 34 110 129 79 41 14 343 333 347
255 242 239 237 233 230 230 230 231 233 234 235 235 236 235 236 239 241 241 242 243 245 246 248 248 243 234 225 211 197 194 174 151 145 143 137 127 118 112 109 109 110 107 100 99 101 95 81 72 75 72 67 77 88 84 73 70 74 76 75 76 82 92 97 100 103 99 91 94 98 95 95 104 101 85 75 75 65 50 37 36 58 38 19 355 342 352
8 275 248 242 237 232 228 228 229 231 231 232 233 233 232 232 234 237 237 235 236 238 237 236 238 237 218 186 170 160 148 127 113 115 120 120 115 111 107 102 99 102 104 99 95 97 97 91 86 80 70 69 89 99 93 89 90 90 88 89 86 80 76 74 77 82 83 81 85 89 85 86 103 120 115 105 102 92 72 52 40 30 18 10 2 352 354
34 30 6 262 243 234 230 230 230 229 230 232 232 229 228 227 227 228 228 227 228 231 230 228 228 218 168 142 139 138 129 112 98 98 103 104 102 102 101 97 96 96 96 93 94 97 97 94 88 79 70 72 86 95 94 96 100 96 91 88 85 82 80 80 78 78 78 79 81 82 78 79 101 129 125 110 113 115 102 82 72 61 40 17 4 359 359
36 37 37 33 11 247 235 235 234 233 233 233 229 224 222 220 219 219 220 221 223 225 219 206 194 170 138 128 126 123 118 112 106 103 100 97 97 98 96 94 94 91 84 83 90 95 92 88 85 77 69 68 76 87 91 91 92 92 87 81 78 78 80 78 74 71 69 71 76 78 74 69 77 93 96 90 100 121 124 114 103 87 71 62 51 33 22
36 39 42 45 47 49 57 218 228 229 225 220 216 214 213 210 208 209 210 210 210 205 188 167 157 142 126 120 118 115 112 112 111 109 105 102 102 98 89 82 79 74 71 81 94 95 88 84 83 77 70 68 74 83 89 87 85 86 84 80 78 79 79 75 73 71 68 65 65 68 67 64 65 76 86 85 80 79 66 76 155 124 92 85 74 35 13
34 37 43 47 49 52 60 73 86 111 176 196 202 203 200 197 196 198 197 190 180 166 152 145 140 130 118 114 110 104 102 103 104 102 99 98 97 91 83 77 78 79 83 93 98 93 85 83 82 77 71 70 76 84 88 88 86 86 83 81 81 81 79 77 75 73 71 69 66 63 62 62 63 68 74 73 67 62 60 61 68 65 46 34 19 355 345
33 34 39 44 47 51 56 61 64 67 77 101 133 160 172 168 163 162 161 155 147 139 132 128 121 111 104 102 99 95 91 92 94 94 92 90 89 88 86 84 86 91 95 99 98 92 86 83 79 73 68 68 73 77 80 84 87 86 81 76 76 77 76 76 75 72 70 68 64 61 61 62 63 66 68 68 65 64 64 65 65 62 55 48 44 40 36
36 35 38 41 44 48 52 56 58 60 65 74 87 100 109 113 113 112 112 117 122 119 113 111 110 107 102 99 97 93 90 89 91 93 90 85 80 80 80 80 83 89 94 96 97 96 94 90 83 76 73 75 77 75 75 79 87 88 83 77 74 73 72 71 72 74 74 70 65 63 63 62 62 64 67 70 69 67 65 64 65 66 66 65 64 64 63
40 39 40 41 42 45 49 52 55 58 61 67 76 84 86 86 86 85 86 93 103 104 99 97 101 103 101 99 97 94 90 88 88 87 85 79 74 72 72 72 77 85 91 93 94 94 94 91 87 83 85 89 90 86 84 84 84 83 81 79 75 73 71 69 67 70 74 75 73 71 71 69 68 66 66 67 70 70 69 68 66 66 66 66 65 65 63
44 43 43 43 43 46 49 50 51 56 59 62 69 77 80 79 77 76 76 80 87 91 89 87 90 93 93 92 90 87 83 81 81 80 79 77 75 73 71 69 72 79 85 89 89 87 85 84 81 81 87 95 97 97 95 91 84 80 79 79 78 76 76 75 71 68 68 68 68 68 68 69 70 70 68 67 67 67 68 68 67 65 65 64 63 62 63
47 47 47 47 47 48 50 50 51 54 56 58 63 71 74 74 73 74 73 74 78 81 80 78 77 79 81 82 83 81 78 76 75 74 72 70 68 66 66 69 74 77 81 84 84 83 81 79 77 76 79 85 92 97 98 95 90 86 83 82 81 79 78 77 77 75 72 68 65 63 62 62 63 64 66 66 65 64 65 66 66 64 62 63 62 62 62
47 49 50 51 51 51 51 52 53 55 57 58 61 66 68 69 69 70 71 71 74 77 77 75 73 72 73 75 76 76 75 74 73 70 68 65 61 56 53 58 66 74 79 83 83 82 81 80 80 79 76 74 77 86 91 92 92 89 84 80 78 77 76 76 77 77 77 76 74 70 66 63 61 60 60 61 60 59 58 58 60 61 60 59 59 57 55
45 50 52 52 53 53 53 54 56 58 59 60 61 64 66 67 68 68 68 69 71 74 75 76 75 74 74 74 74 73 72 72 71 70 69 68 66 61 52 47 49 57 69 77 79 79 79 80 81 80 76 73 73 77 81 83 84 83 80 78 75 72 70 72 73 73 74 75 75 74 73 70 66 64 62 61 59 57 52 48 48 51 53 56 58 58 56
39 46 50 53 54 54 53 53 55 56 57 58 60 63 66 68 69 70 70 70 71 72 73 73 74 75 75 75 74 73 72 70 69 68 67 68 71 71 65 55 46 43 51 66 75 77 78 79 78 74 71 69 69 71 73 76 77 75 73 72 71 70 67 66 66 67 69 70 69 70 73 71 66 60 55 52 54 58 59 54 48 44 43 45 48 51 53
36 41 46 50 53 54 54 53 54 55 56 57 59 62 65 68 70 71 71 71 70 70 70 71 72 74 75 75 74 74 73 72 70 65 61 58 59 63 67 67 58 47 45 56 69 74 73 71 71 70 67 65 64 65 66 68 72 73 71 68 66 65 65 64 62 61 63 64 64 64 63 61 58 52 45 42 41 43 45 47 48 47 47 46 44 42 42
36 39 42 45 48 50 51 52 54 56 59 60 61 61 62 63 65 66 67 69 68 67 67 66 66 68 70 72 71 70 69 69 67 63 57 53 53 55 59 64 64 57 50 50 58 66 68 66 64 62 62 63 64 64 63 62 63 66 71 73 72 69 65 64 65 64 60 58 60 60 56 51 48 47 44 41 37 33 31 30 29 30 38 46 46 41 39
34 37 40 41 43 46 48 49 51 53 55 58 62 65 65 64 63 61 61 62 66 69 69 68 65 63 61 60 59 58 57 56 56 57 56 55 54 54 56 58 61 62 60 54 51 56 63 63 60 57 57 59 60 61 62 62 60 58 60 69 78 78 71 64 63 64 61 57 56 58 56 53 51 52 53 51 46 41 40 37 32 33 40 45 40 35 38
40 38 38 39 41 44 46 48 51 53 53 53 56 61 65 70 72 70 65 61 61 64 67 68 66 63 60 56 53 50 48 45 46 51 59 62 59 56 56 57 58 59 62 59 55 53 55 57 57 56 57 58 58 58 58 60 60 59 57 57 63 71 72 66 59 56 57 57 55 54 54 54 51 49 52 55 53 45 41 37 34 37 46 47 38 32 29
42 39 37 36 38 40 41 43 46 50 52 51 51 52 57 62 67 68 66 63 61 60 61 62 61 60 59 58 55 52 50 50 50 54 60 64 63 60 59 59 58 56 58 59 58 55 54 55 56 56 57 58 59 59 59 58 58 59 59 57 55 57 65 67 63 56 54 54 53 51 51 53 51 48 46 47 47 44 41 38 36 34 35 36 35 34 30
Height
1363 1359 1359 1359 1361 1362 1360 1360 1358 1358 1363 1366 1369 1373 1372 1373 1387 1392 1382 1379 1385 1381 1374 1375 1373 1369 1370 1369 1370 1374 1379 1382 1385 1387 1389 1392 1396 1399 1401 1404 1407 1410 1413 1415 1417 1420 1423 1427 1431 1434 1437 1439 1441 1443 1445 1447 1449 1451 1453 1454 1456 1458 1459 1460 1462 1464 1467 1470 1473 1476 1479 1482 1485 1487 1490 1493 1496 1498 1500 1501 1503 1505 1508 1509 1510 1512 1513
1365 1362 1361 1361 1364 1366 1364 1360 1354 1353 1359 1363 1366 1369 1366 1370 1379 1378 1375 1381 1382 1375 1372 1372 1369 1368 1369 1370 1374 1379 1383 1385 1386 1387 1389 1391 1395 1399 1402 1405 1407 1409 1411 1413 1416 1419 1422 1426 1429 1432 1435 1436 1438 1440 1442 1444 1446 1448 1450 1451 1452 1454 1455 1455 1458 1462 1464 1467 1469 1472 1475 1478 1480 1483 1486 1489 1492 1494 1496 1498 1500 1501 1504 1506 1507 1507 1509
1372 1367 1364 1363 1366 1368 1368 1363 1352 1349 1355 1360 1364 1367 1364 1369 1377 1373 1374 1386 1383 1372 1370 1369 1369 1371 1373 1376 1381 1384 1387 1388 1389 1390 1390 1392 1395 1398 1402 1406 1407 1409 1411 1413 1416 1419 1422 1425 1427 1430 1432 1434 1436 1438 1439 1441 1443 1445 1448 1448 1449 1451 1452 1453 1456 1459 1461 1464 1466 1468 1471 1474 1476 1479 1482 1485 1487 1490 1492 1495 1496 1498 1500 1502 1503 1504 1504
1382 1371 1366 1364 1364 1368 1372 1368 1356 1350 1355 1358 1361 1364 1363 1367 1375 1376 1379 1388 1385 1374 1370 1371 1373 1376 1380 1382 1385 1388 1390 1392 1393 1394 1394 1396 1399 1400 1404 1406 1407 1410 1413 1415 1417 1420 1422 1424 1426 1428 1430 1431 1433 1434 1436 1438 1440 1442 1444 1445 1446 1447 1450 1452 1454 1455 1457 1460 1462 1465 1467 1470 1473 1475 1478 1481 1483 1485 1488 1490 1493 1494 1496 1497 1499 1501 1501
1385 1373 1369 1366 1369 1384 1385 1370 1357 1356 1358 1356 1356 1360 1361 1360 1366 1375 1381 1382 1376 1371 1372 1375 1377 1381 1385 1386 1387 1391 1394 1395 1397 1398 1399 1401 1402 1402 1405 1407 1409 1411 1413 1414 1417 1419 1421 1423 1425 1426 1428 1429 1430 1431 1433 1435 1437 1438 1440 1442 1443 1444 1446 1449 1450 1451 1454 1457 1458 1461 1463 1466 1469 1472 1474 1476 1478 1480 1483 1486 1489 1491 1492 1493 1495 1497 1497
1388 1376 1370 1369 1380 1395 1387 1362 1354 1359 1359 1356 1357 1359 1359 1358 1359 1364 1370 1370 1368 1372 1377 1381 1382 1384 1385 1387 1389 1394 1396 1398 1400 1401 1402 1403 1404 1404 1406 1408 1409 1411 1411 1414 1416 1418 1420 1422 1423 1424 1425 1426 1428 1429 1431 1432 1433 1435 1436 1438 1440 1441 1442 1445 1446 1448 1451 1453 1455 1458 1459 1462 1465 1467 1469 1471 1473 1477 1480 1483 1485 1486 1487 1489 1490 1491 1492
1389 1378 1377 1387 1394 1388 1371 1357 1354 1355 1353 1355 1360 1357 1352 1353 1356 1358 1364 1368 1370 1374 1378 1380 1382 1384 1385 1388 1392 1395 1398 1400 1402 1403 1404 1405 1405 1406 1407 1408 1409 1410 1411 1414 1416 1417 1419 1420 1421 1422 1423 1424 1425 1427 1428 1429 1430 1432 1433 1435 1437 1438 1438 1440 1443 1445 1447 1449 1452 1455 1457 1459 1461 1462 1465 1467 1470 1473 1476 1478 1479 1481 1483 1484 1485 1486 1487
1391 1386 1389 1398 1392 1372 1363 1364 1359 1354 1355 1360 1365 1364 1354 1352 1357 1363 1369 1371 1371 1375 1379 1381 1384 1386 1388 1391 1395 1398 1400 1401 1403 1404 1405 1406 1406 1406 1406 1406 1407 1409 1411 1413 1415 1416 1417 1418 1419 1421 1422 1423 1424 1424 1425 1426 1427 1429 1430 1431 1433 1435 1435 1437 1439 1441 1443 1446 1449 1451 1454 1456 1457 1459 1461 1463 1466 1469 1471 1473 1475 1477 1478 1479 1480 1481 1483
1394 1395 1392 1388 1384 1375 1372 1371 1360 1354 1360 1363 1368 1374 1370 1360 1359 1366 1372 1374 1374 1378 1381 1383 1386 1389 1392 1396 1399 1400 1401 1402 1403 1404 1404 1405 1406 1406 1407 1407 1408 1410 1411 1413 1414 1415 1415 1417 1418 1419 1420 1421 1422 1422 1423 1424 1425 1426 1427 1428 1429 1431 1433 1434 1436 1438 1440 1442 1445 1447 1450 1451 1453 1455 1458 1461 1463 1465 1467 1470 1471 1472 1474 1475 1476 1478 1479
1397 1399 1397 1391 1392 1391 1382 1373 1362 1356 1359 1361 1364 1376 1380 1372 1365 1367 1372 1377 1380 1381 1381 1383 1388 1393 1400 1404 1402 1401 1402 1403 1403 1404 1405 1406 1408 1408 1409 1409 1409 1410 1412 1412 1413 1414 1414 1415 1416 1417 1418 1418 1418 1420 1420 1421 1422 1423 1424 1424 1426 1428 1430 1432 1433 1436 1438 1440 1442 1444 1446 1448 1450 1452 1455 1458 1460 1462 1464 1466 1467 1469 1470 1472 1473 1474 1474
1406 1406 1407 1398 1394 1391 1382 1373 1364 1359 1363 1366 1369 1381 1390 1385 1378 1375 1375 1377 1383 1385 1385 1387 1391 1399 1408 1409 1404 1402 1405 1405 1405 1406 1407 1408 1409 1410 1411 1411 1410 1411 1412 1412 1413 1413 1414 1414 1414 1415 1415 1415 1415 1416 1417 1419 1420 1420 1420 1422 1424 1426 1428 1430 1432 1434 1435 1437 1439 1441 1443 1445 1447 1449 1452 1455 1457 1459 1461 1462 1464 1467 1468 1468 1469 1470 1470
1413 1411 1409 1396 1389 1392 1387 1374 1365 1365 1369 1372 1381 1398 1404 1396 1389 1386 1381 1379 1384 1388 1390 1393 1396 1403 1408 1408 1406 1406 1407 1406 1407 1408 1408 1409 1410 1410 1411 1411 1411 1411 1412 1412 1412 1413 1413 1412 1412 1413 1413 1413 1414 1414 1415 1416 1417 1417 1418 1420 1422 1425 1427 1428 1430 1431 1433 1435 1436 1438 1441 1443 1445 1447 1449 1452 1454 1455 1457 1459 1461 1463 1464 1465 1465 1466 1467
1414 1413 1408 1394 1391 1400 1394 1380 1373 1371 1370 1377 1394 1409 1410 1401 1396 1394 1390 1388 1391 1393 1396 1398 1401 1405 1407 1408 1408 1408 1407 1408 1409 1409 1409 1410 1410 1410 1411 1410 1410 1410 1411 1411 1411 1411 1411 1410 1411 1411 1411 1411 1412 1412 1413 1414 1415 1416 1418 1418 1420 1422 1424 1426 1427 1429 1431 1433 1434 1436 1439 1442 1444 1445 1447 1448 1450 1452 1453 1455 1456 1458 1460 1461 1462 1463 1464
1414 1412 1407 1397 1399 1405 1397 1387 1382 1378 1382 1398 1410 1412 1410 1405 1401 1399 1398 1398 1400 1401 1402 1404 1406 1408 1409 1408 1409 1408 1408 1409 1409 1409 1409 1409 1409 1410 1410 1410 1409 1409 1409 1410 1410 1410 1409 1409 1409 1409 1409 1409 1409 1410 1411 1412 1413 1415 1416 1417 1418 1419 1421 1423 1425 1426 1428 1430 1432 1435 1437 1439 1441 1443 1444 1446 1447 1449 1450 1452 1453 1455 1456 1458 1460 1461 1461
1418 1414 1410 1410 1415 1412 1399 1393 1394 1395 1403 1416 1418 1413 1411 1409 1406 1405 1405 1406 1407 1409 1408 1409 1410 1411 1410 1410 1409 1409 1410 1410 1409 1409 1409 1408 1408 1409 1409 1409 1409 1408 1408 1409 1408 1408 1408 1407 1407 1407 1408 1408 1408 1409 1410 1410 1411 1413 1415 1415 1416 1417 1419 1421 1423 1425 1426 1428 1430 1433 1434 1436 1438 1440 1442 1443 1445 1446 1448 1449 1451 1452 1453 1455 1456 1458 1459
1422 1420 1417 1419 1422 1416 1405 1404 1409 1410 1413 1416 1414 1414 1415 1412 1410 1410 1410 1411 1413 1413 1412 1413 1413 1413 1413 1413 1412 1411 1411 1411 1410 1410 1409 1408 1408 1408 1408 1409 1408 1407 1408 1408 1407 1407 1407 1405 1405 1406 1407 1407 1408 1408 1408 1408 1409 1411 1413 1414 1414 1415 1417 1419 1422 1424 1425 1426 1428 1430 1432 1434 1436 1437 1439 1441 1442 1444 1445 1446 1448 1449 1451 1452 1454 1454 1456
1422 1420 1418 1418 1418 1414 1411 1413 1414 1415 1415 1415 1414 1416 1417 1415 1414 1414 1414 1415 1416 1415 1415 1415 1414 1414 1415 1414 1413 1412 1412 1411 1411 1410 1409 1409 1409 1408 1408 1408 1407 1407 1408 1407 1407 1406 1406 1405 1404 1405 1406 1406 1406 1406 1406 1407 1408 1409 1410 1412 1413 1414 1416 1418 1420 1422 1424 1425 1427 1428 1430 1432 1434 1435 1437 1438 1440 1441 1443 1444 1446 1447 1449 1450 1451 1452 1453
1422 1419 1417 1416 1415 1414 1415 1417 1417 1417 1417 1416 1415 1416 1418 1418 1418 1418 1418 1418 1418 1417 1418 1417 1417 1417 1416 1415 1414 1413 1412 1412 1411 1410 1410 1409 1409 1409 1409 1408 1407 1407 1407 1407 1406 1405 1405 1405 1405 1405 1405 1405 1405 1405 1406 1406 1407 1408 1409 1411 1412 1413 1415 1417 1418 1421 1423 1424 1425 1427 1429 1431 1432 1433 1435 1436 1437 1439 1440 1442 1443 1445 1446 1448 1448 1449 1450
1428 1423 1415 1413 1415 1415 1415 1417 1417 1417 1417 1417 1417 1418 1419 1420 1420 1420 1421 1421 1421 1421 1420 1420 1419 1418 1416 1416 1415 1414 1413 1412 1411 1410 1410 1409 1409 1409 1409 1408 1407 1407 1407 1406 1406 1405 1405 1404 1404 1404 1405 1404 1404 1405 1406 1406 1407 1408 1409 1410 1411 1412 1414 1416 1417 1419 1421 1423 1424 1426 1428 1429 1431 1432 1433 1434 1436 1437 1438 1440 1441 1442 1443 1445 1445 1446 1447
1427 1423 1416 1414 1416 1417 1416 1417 1418 1418 1418 1418 1418 1419 1420 1420 1421 1422 1422 1422 1422 1421 1421 1420 1420 1418 1417 1416 1415 1414 1413 1413 1411 1410 1410 1409 1409 1409 1408 1408 1408 1407 1407 1407 1406 1405 1405 1404 1404 1405 1404 1404 1405 1405 1405 1406 1407 1407 1408 1410 1411 1412 1414 1415 1417 1418 1420 1421 1423 1424 1426 1428 1429 1430 1432 1433 1434 1435 1436 1438 1439 1440 1441 1442 1443 1444 1445
1426 1421 1417 1416 1418 1417 1417 1418 1418 1418 1418 1418 1418 1419 1420 1420 1420 1419 1419 1420 1421 1421 1421 1421 1420 1418 1417 1416 1415 1414 1413 1412 1411 1411 1410 1409 1409 1408 1408 1408 1408 1407 1407 1407 1406 1406 1405 1405 1405 1405 1405 1405 1405 1405 1405 1406 1406 1407 1408 1409 1411 1412 1414 1415 1416 1417 1418 1420 1422 1423 1425 1426 1428 1429 1430 1431 1433 1434 1434 1435 1437 1438 1439 1440 1441 1441 1443
1428 1422 1417 1418 1419 1418 1416 1416 1416 1417 1418 1418 1417 1418 1418 1418 1418 1417 1416 1416 1417 1418 1420 1421 1420 1419 1417 1415 1414 1413 1412 1411 1411 1410 1410 1409 1408 1408 1408 1408 1407 1407 1407 1407 1406 1406 1406 1406 1406 1406 1406 1406 1406 1406 1406 1406 1406 1407 1408 1409 1411 1412 1413 1414 1415 1416 1417 1419 1420 1422 1424 1425 1426 1428 1429 1430 1432 1432 1432 1433 1434 1435 1436 1437 1438 1439 1440
1427 1422 1419 1419 1420 1419 1417 1416 1416 1417 1418 1418 1417 1416 1416 1417 1417 1416 1414 1413 1413 1413 1415 1417 1418 1418 1416 1414 1412 1410 1410 1410 1410 1410 1410 1409 1408 1408 1408 1408 1407 1407 1407 1406 1407 1407 1406 1406 1406 1407 1407 1407 1407 1407 1407 1406 1407 1407 1408 1409 1410 1411 1411 1412 1413 1414 1416 1417 1418 1420 1422 1423 1423 1425 1427 1429 1430 1430 1431 1431 1432 1433 1434 1435 1435 1436 1438
1426 1424 1423 1422 1422 1421 1420 1419 1417 1417 1418 1419 1418 1416 1414 1414 1414 1415 1415 1414 1412 1411 1411 1412 1414 1415 1415 1414 1413 1411 1410 1409 1409 1409 1409 1409 1409 1409 1408 1408 1407 1407 1407 1407 1407 1407 1407 1407 1407 1407 1407 1407 1407 1407 1407 1406 1406 1406 1407 1409 1409 1410 1410 1411 1412 1413 1415 1415 1416 1418 1420 1420 1422 1424 1425 1427 1428 1429 1429 1430 1431 1431 1432 1433 1433 1434 1435
1428 1426 1424 1423 1421 1420 1420 1419 1418 1418 1418 1419 1419 1418 1416 1414 1413 1413 1413 1412 1411 1411 1410 1409 1410 1411 1412 1413 1413 1412 1411 1410 1409 1409 1409 1409 1409 1409 1409 1408 1408 1408 1408 1408 1408 1407 1407 1407 1407 1408 1408 1408 1408 1407 1406 1406 1406 1406 1407 1407 1408 1409 1410 1411 1412 1413 1414 1415 1416 1417 1418 1419 1421 1423 1424 1425 1426 1427 1428 1429 1429 1429 1430 1430 1431 1431 1432
1428 1427 1425 1423 1420 1418 1419 1418 1417 1417 1418 1419 1419 1418 1417 1416 1414 1414 1413 1412 1411 1410 1410 1409 1408 1408 1409 1410 1411 1411 1411 1410 1409 1409 1408 1408 1409 1409 1409 1409 1408 1408 1408 1408 1408 1408 1408 1408 1407 1408 1408 1408 1408 1408 1407 1407 1407 1407 1408 1407 1408 1409 1410 1411 1411 1412 1413 1414 1415 1416 1417 1419 1420 1421 1422 1424 1425 1426 1427 1428 1428 1428 1428 1429 1429 1429 1430
1427 1426 1425 1422 1417 1415 1416 1415 1414 1415 1416 1417 1417 1417 1416 1416 1416 1415 1414 1413 1412 1411 1410 1410 1409 1408 1408 1408 1409 1409 1409 1409 1408 1408 1408 1408 1408 1408 1408 1408 1408 1408 1409 1408 1408 1409 1409 1408 1409 1408 1407 1407 1407 1407 1408 1408 1408 1408 1409 1409 1409 1410 1411 1411 1411 1412 1412 1413 1414 1416 1417 1419 1420 1421 1422 1424 1425 1426 1426 1427 1428 1428 1427 1427 1427 1428 1428
1421 1420 1421 1419 1414 1412 1413 1413 1412 1412 1413 1414 1415 1415 1415 1415 1415 1415 1414 1414 1413 1412 1411 1411 1411 1410 1409 1408 1408 1408 1408 1408 1408 1407 1407 1408 1408 1408 1408 1407 1407 1408 1408 1408 1408 1409 1410 1410 1410 1409 1408 1408 1407 1407 1408 1408 1408 1408 1409 1410 1411 1411 1411 1411 1412 1412 1413 1413 1414 1416 1417 1418 1419 1421 1422 1423 1424 1425 1425 1426 1426 1426 1426 1426 1426 1427 1427
1413 1412 1413 1412 1410 1409 1410 1409 1409 1409 1409 1410 1411 1412 1412 1412 1413 1413 1413 1412 1412 1412 1411 1411 1411 1410 1410 1409 1408 1407 1407 1407 1407 1406 1406 1407 1407 1407 1407 1407 1407 1408 1408 1408 1409 1410 1411 1411 1411 1410 1410 1409 1409 1408 1409 1409 1408 1408 1409 1409 1410 1411 1411 1412 1412 1412 1413 1414 1415 1416 1417 1418 1419 1420 1421 1422 1423 1424 1425 1425 1425 1425 1425 1425 1425 1425 1425
1404 1404 1404 1404 1404 1404 1405 1404 1404 1405 1406 1407 1408 1408 1409 1410 1410 1410 1410 1411 1411 1411 1410 1410 1410 1410 1409 1408 1407 1406 1406 1406 1405 1404 1404 1405 1407 1407 1407 1407 1407 1408 1408 1408 1409 1411 1412 1412 1411 1410 1410 1410 1410 1410 1410 1410 1410 1410 1410 1410 1410 1410 1410 1411 1412 1413 1414 1415 1416 1417 1418 1418 1419 1420 1421 1422 1423 1424 1424 1424 1424 1424 1424 1423 1424 1424 1424
1395 1396 1396 1396 1397 1397 1397 1398 1399 1400 1401 1402 1404 1404 1405 1406 1407 1407 1408 1408 1409 1409 1409 1409 1409 1409 1408 1407 1406 1405 1405 1405 1404 1404 1404 1405 1406 1406 1406 1406 1406 1407 1408 1408 1410 1411 1412 1412 1412 1411 1411 1411 1411 1411 1410 1411 1411 1411 1410 1410 1410 1411 1411 1412 1413 1414 1415 1415 1416 1417 1418 1419 1420 1421 1421 1422 1423 1424 1424 1425 1425 1424 1423 1422 1422 1422 1422
1387 1388 1389 1390 1390 1390 1391 1392 1393 1394 1396 1398 1399 1400 1401 1403 1404 1404 1405 1406 1406 1407 1407 1407 1407 1407 1407 1406 1405 1405 1404 1404 1404 1404 1404 1405 1405 1406 1405 1405 1406 1407 1408 1409 1410 1412 1412 1413 1413 1412 1412 1412 1412 1411 1411 1411 1410 1411 1411 1411 1411 1411 1412 1412 1413 1414 1415 1415 1416 1417 1418 1420 1421 1421 1421 1422 1423 1424 1424 1424 1425 1425 1424 1422 1421 1421 1420
1380 1380 1381 1382 1383 1384 1385 1386 1387 1388 1391 1393 1394 1396 1398 1399 1400 1401 1402 1403 1404 1404 1405 1405 1405 1405 1406 1406 1405 1405 1404 1403 1403 1403 1403 1404 1405 1406 1405 1405 1405 1407 1409 1410 1412 1412 1413 1414 1414 1414 1413 1413 1412 1412 1411 1411 1411 1411 1412 1412 1412 1413 1413 1413 1413 1414 1414 1415 1416 1417 1418 1419 1420 1421 1422 1423 1423 1424 1424 1424 1424 1424 1423 1421 1420 1419 1419
1374 1373 1373 1374 1376 1377 1378 1380 1382 1384 1386 1388 1390 1392 1394 1396 1397 1397 1398 1400 1401 1402 1403 1403 1403 1403 1404 1405 1405 1405 1404 1404 1403 1402 1402 1403 1404 1404 1405 1405 1405 1407 1410 1411 1412 1413 1413 1414 1414 1414 1413 1413 1412 1412 1412 1413 1413 1413 1413 1413 1413 1414 1414 1414 1414 1415 1415 1416 1417 1418 1419 1419 1420 1421 1421 1422 1422 1422 1422 1422 1422 1422 1421 1420 1419 1419 1420
1371 1369 1368 1369 1372 1373 1374 1376 1378 1380 1382 1384 1385 1387 1389 1391 1393 1394 1395 1397 1398 1399 1400 1401 1402 1403 1404 1404 1404 1404 1405 1405 1404 1403 1403 1403 1403 1403 1404 1405 1407 1409 1411 1412 1413 1413 1413 1414 1414 1414 1413 1413 1413 1413 1413 1413 1414 1414 1414 1414 1415 1415 1416 1416 1417 1417 1418 1418 1419 1419 1419 1419 1419 1420 1419 1419 1419 1419 1419 1419 1420 1420 1420 1420 1420 1420 1421
1372 1368 1367 1367 1368 1370 1371 1373 1374 1376 1377 1379 1381 1382 1384 1387 1388 1390 1392 1394 1395 1397 1399 1399 1401 1403 1403 1403 1403 1403 1404 1405 1406 1405 1404 1404 1403 1404 1405 1406 1409 1411 1412 1413 1413 1414 1414 1414 1415 1415 1415 1415 1414 1414 1414 1414 1414 1415 1415 1416 1416 1417 1417 1418 1419 1419 1419 1419 1419 1419 1419 1419 1419 1419 1419 1418 1418 1418 1418 1419 1420 1420 1420 1420 1420 1420 1420
1376 1372 1370 1368 1367 1367 1368 1368 1370 1371 1373 1375 1377 1378 1381 1383 1385 1388 1390 1391 1393 1395 1397 1398 1400 1402 1402 1401 1401 1402 1404 1405 1406 1406 1406 1406 1405 1405 1406 1408 1410 1412 1412 1413 1414 1415 1416 1416 1416 1416 1416 1415 1415 1415 1415 1415 1415 1416 1416 1416 1417 1418 1418 1419 1420 1420 1420 1419 1419 1419 1419 1418 1418 1418 1418 1418 1418 1417 1418 1419 1419 1419 1419 1418 1418 1418 1418
1381 1377 1374 1371 1369 1367 1366 1366 1367 1368 1370 1372 1374 1376 1378 1381 1383 1385 1387 1389 1391 1393 1395 1397 1400 1401 1400 1399 1399 1402 1404 1405 1405 1406 1407 1406 1405 1406 1409 1411 1413 1414 1414 1415 1415 1416 1417 1417 1417 1417 1416 1416 1416 1416 1416 1417 1417 1417 1417 1418 1419 1419 1420 1421 1421 1421 1421 1421 1421 1420 1419 1418 1418 1417 1417 1417 1417 1418 1418 1418 1418 1418 1417 1416 1416 1417 1416
1388 1384 1380 1376 1373 1370 1368 1367 1367 1367 1368 1370 1372 1374 1376 1378 1381 1384 1386 1389 1391 1392 1394 1396 1398 1400 1401 1401 1401 1403 1406 1407 1407 1408 1408 1408 1408 1410 1413 1414 1415 1415 1416 1416 1416 1417 1417 1418 1418 1418 1418 1418 1418 1418 1418 1418 1418 1419 1420 1420 1421 1421 1422 1423 1423 1423 1423 1423 1422 1421 1420 1418 1417 1417 1417 1417 1418 1418 1418 1418 1418 1417 1416 1415 1415 1415 1415
1398 1394 1389 1384 1380 1377 1375 1372 1371 1371 1370 1370 1371 1372 1374 1376 1380 1384 1387 1390 1391 1392 1393 1394 1396 1400 1403 1404 1405 1407 1409 1409 1408 1409 1411 1412 1414 1415 1415 1415 1416 1417 1417 1417 1417 1418 1418 1418 1418 1418 1419 1419 1419 1420 1420 1420 1419 1420 1421 1422 1422 1423 1423 1424 1424 1424 1424 1424 1423 1422 1421 1419 1419 1419 1419 1419 1420 1419 1419 1418 1417 1416 1415 1415 1415 1415 1415
1407 1404 1399 1393 1390 1388 1385 1381 1380 1379 1378 1374 1373 1373 1375 1376 1379 1383 1387 1388 1389 1390 1393 1395 1398 1401 1405 1407 1407 1409 1410 1410 1411 1412 1414 1416 1417 1417 1416 1417 1419 1420 1419 1419 1419 1419 1418 1418 1418 1419 1420 1420 1421 1421 1422 1421 1421 1421 1422 1423 1424 1424 1424 1424 1424 1424 1424 1424 1424 1423 1423 1422 1422 1422 1422 1422 1421 1420 1420 1419 1418 1417 1416 1416 1416 1416 1415
1415 1412 1407 1403 1401 1399 1395 1391 1390 1389 1386 1383 1380 1380 1381 1381 1382 1385 1389 1390 1389 1392 1397 1401 1403 1405 1408 1409 1409 1410 1412 1413 1414 1415 1415 1416 1418 1418 1418 1420 1422 1422 1422 1421 1421 1420 1420 1419 1420 1420 1421 1422 1422 1422 1423 1423 1423 1423 1423 1424 1424 1425 1425 1425 1425 1425 1425 1425 1425 1425 1425 1425 1424 1424 1425 1424 1423 1422 1421 1420 1420 1419 1419 1418 1418 1417 1416
1422 1419 1415 1413 1411 1408 1405 1403 1402 1398 1394 1393 1392 1390 1390 1391 1391 1393 1395 1396 1395 1397 1403 1407 1408 1409 1411 1411 1412 1414 1416 1417 1417 1417 1417 1418 1420 1421 1421 1423 1424 1424 1423 1423 1422 1422 1422 1422 1422 1423 1423 1423 1423 1423 1423 1423 1424 1425 1425 1425 1425 1426 1426 1426 1426 1427 1427 1427 1427 1427 1427 1427 1427 1427 1427 1426 1425 1424 1423 1422 1422 1422 1422 1421 1420 1419 1418
1428 1426 1423 1421 1419 1417 1414 1413 1410 1405 1402 1403 1403 1399 1397 1398 1399 1401 1403 1404 1403 1404 1408 1412 1413 1414 1414 1414 1415 1417 1420 1420 1421 1421 1421 1422 1423 1424 1425 1425 1425 1425 1425 1425 1424 1424 1424 1424 1425 1425 1426 1425 1425 1425 1424 1424 1425 1426 1426 1426 1427 1427 1427 1428 1428 1429 1429 1430 1430 1430 1430 1429 1429 1429 1428 1428 1427 1427 1426 1426 1425 1425 1424 1423 1422 1422 1421
1434 1431 1429 1428 1426 1423 1421 1420 1418 1414 1413 1412 1409 1405 1404 1406 1407 1408 1410 1410 1409 1410 1414 1417 1418 1418 1419 1419 1419 1421 1422 1423 1424 1424 1425 1425 1427 1428 1429 1429 1428 1428 1428 1427 1427 1427 1427 1427 1427 1427 1427 1427 1427 1426 1426 1426 1427 1427 1428 1428 1429 1429 1429 1430 1430 1430 1431 1431 1432 1432 1432 1432 1432 1431 1431 1431 1430 1430 1429 1429 1428 1427 1426 1426 1425 1424 1422
1439 1437 1435 1433 1431 1430 1429 1428 1426 1423 1421 1419 1416 1415 1415 1416 1416 1416 1417 1417 1417 1418 1420 1422 1423 1424 1425 1425 1425 1426 1426 1426 1427 1428 1429 1430 1431 1432 1433 1432 1432 1431 1431 1430 1430 1429 1430 1430 1429 1429 1429 1429 1428 1428 1428 1429 1429 1429 1430 1430 1431 1431 1432 1432 1432 1432 1432 1433 1433 1433 1433 1434 1434 1434 1434 1434 1433 1433 1433 1432 1431 1430 1429 1428 1427 1426 1424
1443 1441 1440 1438 1437 1436 1435 1434 1431 1429 1427 1425 1424 1425 1425 1425 1424 1424 1425 1424 1424 1425 1426 1428 1429 1430 1431 1431 1431 1431 1431 1431 1432 1433 1434 1434 1435 1435 1436 1435 1435 1435 1435 1434 1433 1433 1433 1432 1432 1432 1431 1431 1431 1430 1430 1431 1431 1431 1432 1433 1433 1434 1434 1434 1434 1434 1434 1434 1435 1435 1435 1435 1435 1436 1436 1435 1435 1435 1435 1435 1435 1434 1432 1431 1429 1427 1426
1447 1446 1444 1443 1442 1441 1439 1438 1436 1434 1434 1433 1433 1433 1433 1432 1431 1431 1431 1430 1431 1431 1432 1433 1435 1435 1436 1436 1436 1436 1435 1435 1435 1436 1438 1438 1438 1438 1438 1438 1438 1439 1438 1437 1437 1436 1435 1435 1434 1434 1434 1433 1433 1433 1433 1433 1433 1433 1434 1435 1435 1436 1436 1436 1437 1437 1437 1436 1436 1436 1436 1437 1437 1437 1437 1437 1437 1437 1437 1437 1437 1436 1435 1433 1431 1429 1428
1451 1450 1448 1447 1445 1444 1443 1442 1441 1440 1440 1440 1439 1439 1439 1438 1437 1436 1436 1436 1436 1436 1437 1438 1439 1440 1440 1440 1439 1439 1439 1439 1439 1440 1441 1441 1441 1441 1441 1441 1441 1441 1441 1440 1439 1438 1437 1437 1437 1436 1436 1435 1435 1436 1436 1436 1436 1435 1435 1436 1436 1437 1438 1438 1438 1439 1439 1438 1438 1438 1438 1438 1439 1439 1439 1439 1439 1439 1439 1439 1438 1436 1435 1434 1432 1431 1430
1453 1452 1451 1450 1449 1448 1447 1446 1446 1445 1445 1444 1444 1443 1443 1442 1441 1441 1441 1441 1441 1441 1442 1443 1443 1443 1443 1443 1443 1443 1442 1442 1442 1442 1443 1443 1443 1444 1444 1443 1443 1443 1443 1442 1441 1440 1439 1439 1439 1439 1439 1438 1438 1438 1438 1438 1438 1438 1438 1438 1438 1438 1439 1440 1440 1440 1440 1440 1440 1439 1439 1440 1440 1440 1441 1441 1441 1441 1441 1440 1439 1438 1436 1435 1433 1432 1431
1456 1455 1454 1454 1453 1452 1451 1450 1450 1449 1449 1448 1447 1447 1446 1445 1445 1445 1445 1445 1445 1445 1445 1445 1446 1446 1446 1446 1446 1446 1445 1445 1445 1445 1445 1445 1445 1446 1446 1445 1445 1445 1444 1443 1442 1442 1441 1441 1440 1441 1441 1441 1441 1440 1440 1440 1440 1440 1440 1440 1440 1440 1440 1440 1441 1441 1441 1441 1441 1441 1440 1441 1441 1441 1442 1442 1442 1442 1442 1441 1440 1438 1437 1435 1434 1433 1432
1458 1458 1457 1456 1456 1455 1454 1453 1453 1452 1451 1451 1450 1450 1449 1448 1448 1448 1448 1448 1448 1448 1448 1448 1448 1448 1448 1448 1448 1448 1448 1447 1447 1447 1447 1447 1447 1448 1448 1448 1447 1446 1445 1444 1444 1444 1443 1443 1443 1442 1442 1442 1442 1442 1442 1442 1442 1442 1442 1442 1442 1442 1441 1441 1442 1442 1443 1443 1442 1442 1442 1442 1442 1442 1443 1443 1443 1443 1442 1441 1440 1439 1437 1436 1436 1435 1434